Location: Evensen
(52.5775°N, 9.5258°E)
Time: 04:32:39
(UTC+00:00)

Cosmos 1602 Rocket - Pass Details

Date: 15 May 2026
Orbit: 597 x 625 km, 82.5° (Epoch: 6 June)

Event Time Altitude Azimuth Distance (km) Brightness Sun altitude
Rises 20:38:13 0° 348° (NNW) 2,861 8.3 -10.4°
Reaches altitude 10° 20:40:26 10° 347° (NNW) 1,956 7.3 -10.6°
Maximum altitude 20:44:46 79° 262° (W) 621 3.6 -11.0°
Enters shadow 20:48:45 12° 176° (S) 1,822 5.5 -11.4°
